Regional Weather Roundup
Issued by NWS Little Rock, AR

Home | Current Version | Previous Version | Graphics & Text | Print | Product List | Glossary On
Versions: 1 2 3 4 5 6 7 8 9 10 11 12 13 14 15 16 17 18 19 20 21 22 23 24 25 26 27 28 29 30 31 32 33 34 35 36 37 38 39 40 41 42 43 44 45 46 47 48 49 50
000
ASUS44 KLZK 280405
RWRLZK

WEATHER ROUNDUP FOR ARKANSAS
NATIONAL WEATHER SERVICE LITTLE ROCK AR
1100 PM CDT TUE JUN 27 2017

NOTE: "FAIR" INDICATES FEW OR NO CLOUDS BELOW 12,000 FEET WITH NO
SIGNIFICANT WEATHER AND/OR OBSTRUCTIONS TO VISIBILITY.

ARZ001-003-010-029-280500-
NORTHWEST ARKANSAS

CITY           SKY/WX    TMP DP  RH WIND       PRES   REMARKS
FAYETTEVILLE   CLEAR     71  62  73 CALM      30.02R
FORT SMITH     CLEAR     74  67  78 E3        29.99R
HARRISON       CLEAR     68  63  84 S6        30.05R
BENTONVILLE    CLEAR     73  61  64 S8        30.02S
ROGERS         CLEAR     72  63  73 SE9       30.02S
SILOAM SPGS    CLEAR     72  63  73 SE7       30.01R
HIGHFILL       CLEAR     73  64  73 S10       30.01S
$$

ARZ004-005-016-280500-
NORTH CENTRAL ARKANSAS

CITY           SKY/WX    TMP DP  RH WIND       PRES   REMARKS
BATESVILLE     CLEAR     72  64  78 SE5       30.05S
FLIPPIN        CLEAR     72  61  68 SE3       30.02S
MTN HOME       CLEAR     69  63  81 S3        30.04R
$$

ARZ040-041-280500-
WEST CENTRAL ARKANSAS

CITY           SKY/WX    TMP DP  RH WIND       PRES   REMARKS
MENA           CLEAR     70  68  94 CALM      30.04R
MOUNT IDA      CLEAR     70  64  81 CALM      30.02R
$$

ARZ009-017-025-026-028-280500-
NORTHEAST ARKANSAS

CITY           SKY/WX    TMP DP  RH WIND       PRES   REMARKS
CORNING        FAIR      72  72 100 SE6       30.05S
JONESBORO      CLEAR     70  68  93 CALM      30.05R
WALNUT RIDGE   CLEAR     72  64  78 SE5       30.05S
BLYTHEVILLE    CLEAR     73  67  81 SE3       30.06R
$$

ARZ022-023-033-042-044-280500-
CENTRAL ARKANSAS

CITY           SKY/WX    TMP DP  RH WIND       PRES   REMARKS
LITTLE ROCK    PTCLDY    72  67  84 SE3       30.04R
N LITTLE ROCK    N/A     74  65  73 SE3       30.03S
JACKSONVILLE   CLEAR     70  68  95 CALM      30.03R
CONWAY           N/A     73  66  78 CALM      30.02R
SEARCY         CLEAR     69  68  96 CALM      30.06R
HOT SPRINGS    CLEAR     73  66  78 E5        30.03R
RUSSELLVILLE   CLEAR     72  65  78 CALM      30.02R
CLINTON        FAIR      66  64  94 CALM      30.05R
$$

ARZ036-280500-
EAST ARKANSAS

CITY           SKY/WX    TMP DP  RH WIND       PRES   REMARKS
WEST MEMPHIS   PTCLDY    70  67  90 CALM      30.05R
$$

ARZ050-053-066-070-073-280500-
SOUTHWEST ARKANSAS

CITY           SKY/WX    TMP DP  RH WIND       PRES   REMARKS
ARKADELPHIA    FAIR      70  69  97 CALM      30.02R
CAMDEN         PTCLDY    72  64  78 CALM      30.01S
TEXARKANA      CLEAR     74  67  78 SE3       30.00R
EL DORADO      PTCLDY    70  67  90 CALM      30.01S
DE QUEEN       CLEAR     72  69  90 CALM      29.98R
$$

ARZ056-057-069-280500-
SOUTHEAST ARKANSAS

CITY           SKY/WX    TMP DP  RH WIND       PRES   REMARKS
PINE BLUFF     PTCLDY    71  68  90 CALM      30.03S
STUTTGART      PTCLDY    77  57  50 E3        30.05S
MONTICELLO     CLEAR     71  67  87 CALM      30.02F

$$





USA.gov is the U.S. government's official web portal to all federal, state and local government web resources and services.